STARLINK-1365, 45590

Orbit data source: Space-Track

STARLINK-1365, 45590 is a payload satellite owned by SpaceX/Seattle (US) in LEO that was launched on Wed, 22 Apr 2020 UTC via an FALCON 9 launch vehicle from the Air Force Eastern Test Range (AFETR). Payload-class satellites include a variety of spacecraft equipped with specific instruments for various scientific and technological missions. These include communications satellites like Starlink; space stations such as the ISS; scientific satellites like the Hubble; Earth observation satellites from companies like Planet Labs, Umbra, and HawkEye 360; GPS; miniature CubeSats for education and research; and military/defense satellites.

Loading next visibility...
Identifier
45590, 2020-025BM
Orbit
LEO
Country
Flag of USUS
Related business
Manufacturer
SpaceX/Seattle
Mission
Partially operational Commercial Communications
Bus & Motor
STARLINK, Unknown motor
Mass
260 kg wet, ~248 kg dry
Launch date (UTC)
2020-04-22 (6 years ago)
Launch vehicle
FALCON 9
Launch site
Air Force Eastern Test Range (AFETR)
Object type
Payload
Rocket body
Debris
Shape & HBR
Box + 1 Pan, 10.1 m
Radar Cross Section
13.562 m², Large (>1 m²)

Expand to show TLE details & history
Last TLE update: 5 hours ago

TLE from 5 hours ago
0 STARLINK-1365
1 45590U 20025BM  26171.33336806  .01259462  00000-0  11690-1 0  9998
2 45590  53.0445 318.5748 0001531  93.6515 105.6928 15.64465341  5961
Epoch: 2026-06-20T08:00Z
TLE epoch observation values (Epoch: 2026-06-20T08:00:03.000Z)
Latitude
-15.52841°
Longitude
122.01053°
Altitude
379.238 km
Speed
7.682 km/s
True Right ascension
10h 02m 17s
True Declination
-15° 26' 06"
Sunlit
Object was in daylight at epoch
Visualization orbit readout
Latitude
Unknown
Longitude
Unknown
Altitude
Unknown
Speed
Unknown
Apparent Right ascension
Unknown
Apparent Declination
Unknown
Sunlit
N/A
Visualization observer readout
Local Sidereal Time
23:37:17
Azimuth
Unknown
Elevation
Unknown
Doppler factor
Unknown
Orbital elements
Apogee altitude
376.09 km
Perigee altitude
374.022 km
Semi-major axis
6,753.193 km
Eccentricity
0.00015
Inclination
53.0445°
RAAN
318.5748°
Arg. of periapsis
93.6515°
True anomaly
105.70969°
Mean anomaly
105.6928°
Eccentric anomaly
105.70124°
Mean motion
3.91092 °/min
Orbital period
92.05 mins
BSTAR
0.01169
Loading maneuver chart data...
Computing Atmospheric mass density...

Documentation

Showing up to 5 results
|